Flag for U.S.A. Weather past 2 weeks in Berkeley, California, U.S.A.

Now
71 °F

Mostly cloudy.


Feels Like: 77 °F
Forecast: 62 / 70 °F
Wind: 9 mph from West

Location: Metro Oakland International Airport

Current Time: Aug 4, 2015 at 1:32:52 PM

Latest Report: Aug 4, 2015 at 12:53 PM


Visibility: 10 mi

Pressure: 30.00 "Hg

Humidity: 51%

Dew point: 52 °F

Location of BerkeleyLocation

Historic Weather in Berkeley — Graph

°F

Berkeley temperature yesterday

Maximum temperature yesterday: 74 °F (at 1:53 PM)
Minimum temperature yesterday: 64 °F (at 12:53 AM)
Average temperature yesterday: 68 °F

Past Weeks' High & Low Weather Summary

 TemperatureHumidityPressure
High86 °F (Jul 28, 1:53 PM)90% (Jul 21, 5:53 AM)30.13 "Hg (Jul 21, 5:53 AM)
Low56 °F (Jul 28, 5:53 AM)37% (Jul 28, 1:53 PM)29.83 "Hg (Jul 28, 4:53 PM)
Average66 °F70%29.96 "Hg
* Reported Jul 20 11:53 AM — Aug 4 11:53 AM, Berkeley, Weather by CustomWeather, © 2015

Note: Actual official high and low records may vary slightly from our data, if they occured in-between our weather recording intervals... More about our weather records

Advertising

Berkeley weather history for previous 24 hours

 ConditionsComfort  
Time TempWeatherWind HumidityBarometerVisibility
11:53 AM
Tue, Aug 4
69 °FPartly sunny.9 mph55%30.01 "Hg10 mi
10:53 AM70 °FPartly sunny.12 mph53%30.00 "Hg10 mi
9:53 AM69 °FBroken clouds.10 mph59%29.99 "Hg10 mi
8:53 AM67 °FScattered clouds.7 mph66%29.99 "Hg10 mi
7:53 AM65 °FScattered clouds.8 mph68%29.97 "Hg10 mi
6:53 AM63 °FMostly cloudy.8 mph75%29.97 "Hg10 mi
5:53 AM64 °FPassing clouds.6 mph73%29.96 "Hg10 mi
4:53 AM63 °FPassing clouds.8 mph73%29.96 "Hg10 mi
3:53 AM63 °FPassing clouds.9 mph75%29.97 "Hg10 mi
2:53 AM64 °FPassing clouds.8 mph78%29.96 "Hg10 mi
1:53 AM65 °FClear.10 mph73%29.97 "Hg10 mi
12:53 AM65 °FPassing clouds.10 mph73%29.97 "Hg10 mi
11:53 PM
Mon, Aug 3
66 °FPassing clouds.12 mph70%29.96 "Hg10 mi
10:53 PM68 °FPassing clouds.13 mph65%29.96 "Hg10 mi
9:53 PM66 °FPassing clouds.14 mph68%29.96 "Hg10 mi
8:53 PM67 °FPartly sunny.18 mph63%29.95 "Hg10 mi
7:53 PM68 °FScattered clouds.17 mph59%29.94 "Hg10 mi
6:53 PM70 °FScattered clouds.18 mph57%29.93 "Hg10 mi
5:53 PM72 °FScattered clouds.20 mph53%29.93 "Hg10 mi
4:53 PM73 °FScattered clouds.18 mph51%29.94 "Hg10 mi
3:53 PM74 °FScattered clouds.18 mph50%29.94 "Hg10 mi
2:53 PM74 °FPassing clouds.16 mph50%29.95 "Hg10 mi
1:53 PM74 °FPassing clouds.16 mph50%29.96 "Hg10 mi
Weather by CustomWeather, © 2015

See weather overviewHow to use our weather pages